[[[{"header":{"parameterUnit":"kt","parameterCategory":2,"dx":1,"dy":1,"la1":30.253999710083008,"la2":30.299108505249023,"lo1":-89.0895004272461,"lo2":-89.04439544677734,"nx":28,"ny":28,"refTime":"2022-10-22T21:00:00:Z","depth":0,"parameterNumber":1,"parameterNumberName":"U-component_of_WINDS"},"data":[-3.9203,-3.9348,-3.9422,-3.9623,-3.9724,-3.9874,-3.9952,-4.006,-4.0166,-4.0355,-4.0477,-4.0568,-4.0704,-4.0869,-4.1006,-4.1044,-4.1097,-4.1095,-4.1139,-4.108,-4.1077,-4.1074,-4.1044,-4.1105,-4.1105,-4.1189,-4.119,-4.119,-3.9156,-3.9257,-3.9384,-3.9558,-3.9668,-3.9716,-3.9858,-3.9948,-4.0081,-4.0212,-4.0336,-4.0509,-4.0656,-4.0795,-4.0949,-4.1021,-4.1052,-4.1057,-4.1052,-4.1073,-4.1013,-4.098,-4.1029,-4.1029,-4.1029,-4.1029,-4.1029,-4.1029,-3.9091,-3.9175,-3.9323,-3.9462,-3.957,-3.9686,-3.978,-3.9888,-4.0015,-4.0183,-4.0248,-4.04,-4.0546,-4.0768,-4.0861,-4.0984,-4.0992,-4.1021,-4.1028,-4.1034,-4.1029,-4.0899,-4.1014,-4.1014,-4.1014,-4.1014,-4.1014,0,-3.9066,-3.9122,-3.9249,-3.9398,-3.9504,-3.9627,-3.9752,-3.9812,-3.9957,-4.0056,-4.0205,-4.0303,-4.0499,-4.0648,-4.0809,-4.0901,-4.0959,-4.0974,-4.0994,-4.0964,-4.0917,-4.0944,-4.0843,-4.0969,-4.0969,-4.0969,-4.0969,-4.0969,-3.9005,-3.9094,-3.9284,-3.9363,-3.945,-3.9576,-3.9667,-3.9788,-3.9879,-4.0052,-4.0121,-4.0272,-4.0398,-4.0625,-4.0752,-4.0898,-4.0928,-4.0968,-4.095,-4.0919,-4.0929,-4.0922,-4.0932,-4.0968,-4.0968,-4.0968,-4.0969,0,-3.8964,-3.9084,-3.9246,-3.9426,-3.9474,-3.9561,-3.9716,-3.9805,-3.9901,-4.0037,-4.0076,-4.0226,-4.0371,-4.0492,-4.0681,-4.074,-4.0889,-4.0914,-4.084,-4.0851,-4.0899,-4.0893,-4.1035,-4.1061,-4.0999,-4.0999,-4.1,0,-3.8959,-3.9071,-3.9244,-3.9331,-3.946,-3.9578,-3.9703,-3.9798,-3.9924,-4.0033,-4.0119,-4.0219,-4.0358,-4.0476,-4.0563,-4.0706,-4.0742,-4.0795,-4.0817,-4.0787,-4.078,-4.0836,-4.0832,-4.0862,-4.0861,-4.086,-4.086,0,-3.8881,-3.9104,-3.9247,-3.9317,-3.952,-3.9584,-3.9672,-3.9814,-3.9901,-4.0035,-4.0093,-4.024,-4.032,-4.0433,-4.0542,-4.0526,-4.072,-4.072,-4.0775,-4.0772,-4.0809,-4.0805,-4.0903,-4.0859,-4.0858,-4.0858,-4.0858,0,-3.8894,-3.9025,-3.9214,-3.9385,-3.9438,-3.9532,-3.9684,-3.9792,-3.9936,-3.9997,-4.0102,-4.0173,-4.0307,-4.0299,-4.0486,-4.0433,-4.0508,-4.0571,-4.0578,-4.0595,-4.0581,-4.0619,-4.07,-4.0713,-4.0615,-4.0613,-4.0611,0,-3.8773,-3.8994,-3.9096,-3.9273,-3.9392,-3.948,-3.9587,-3.9711,-3.98,-3.9915,-4.0015,-4.0144,-4.0163,-4.022,-4.0298,-4.0405,-4.0474,-4.04,-4.0565,-4.0569,-4.0523,-4.06,-4.058,-4.067,-4.0587,-4.0589,-4.0591,0,-3.8692,-3.8936,-3.896,-3.9045,-3.9227,-3.9327,-3.9449,-3.9603,-3.9674,-3.9804,-3.991,-4.0095,-4.0117,-4.021,-4.0283,-4.0357,-4.0431,-4.037,-4.0375,-4.0377,-4.0584,-4.0566,-4.058,-4.0464,-4.0467,-4.047,-4.0572,0,-3.8686,-3.8811,-3.8882,-3.9064,-3.916,-3.9277,-3.9403,-3.9487,-3.9548,-3.9639,-3.9797,-3.9929,-4.0086,-4.0134,-4.0193,-4.0323,-4.032,-4.0341,-4.0339,-4.0389,-4.0426,-4.0441,-4.0275,-4.0275,-4.0276,-4.0277,0,0,-3.8539,-3.8721,-3.8828,-3.895,-3.9037,-3.9126,-3.9239,-3.9335,-3.9524,-3.9583,-3.9584,-3.9862,-3.9969,-4.0148,-4.0173,-4.0237,-4.0272,-4.0248,-4.0364,-4.0374,-4.0383,-4.042,-4.0433,-4.0278,-4.0278,-4.0278,-4.0278,0,-3.8562,-3.8668,-3.8778,-3.8882,-3.9038,-3.9129,-3.9155,-3.9326,-3.9389,-3.9544,-3.9614,-3.9724,-3.9942,-4.0047,-4.0129,-4.0231,-4.0277,-4.0269,-4.0282,-4.0366,-4.0374,-4.0382,-4.042,-4.0431,-4.028,-4.028,-4.028,0,-3.8505,-3.863,-3.8696,-3.8898,-3.9001,-3.912,-3.915,-3.9275,-3.9365,-3.9454,-3.9605,-3.9696,-3.9846,-3.9997,-4.007,-4.0073,-4.0275,-4.0233,-4.0233,-4.0243,-4.0331,-4.034,-4.0349,-4.0232,-4.0231,-4.0231,0,0,-3.8507,-3.8624,-3.8795,-3.8912,-3.8972,-3.9108,-3.9183,-3.925,-3.9382,-3.9435,-3.9551,-3.9678,-3.9807,-3.9888,-4.0015,-4.0164,-4.0205,-4.0222,-4.0224,-4.0226,-4.0236,-4.0324,-4.0334,-4.0228,-4.0228,-4.0228,0,0,-3.8509,-3.8711,-3.8748,-3.8898,-3.9022,-3.9198,-3.9265,-3.9314,-3.944,-3.9441,-3.956,-3.9599,-3.9743,-3.9828,-3.9779,-4.0017,-4.0013,-4.0028,-3.9955,-3.996,-3.9962,-3.9938,-3.9827,0,0,0,0,0,-3.8595,-3.8686,-3.8717,-3.8761,-3.9015,-3.918,-3.9214,-3.9314,-3.931,-3.9361,-3.9466,-3.951,-3.9827,-3.9786,-3.9828,-3.9881,-4.0195,-4.0201,-4.0206,-4.0149,-4.0152,-4.0155,0,0,0,0,0,0,-3.8614,-3.8667,-3.8715,-3.8893,-3.8951,-3.9178,-3.9193,-3.9223,-3.9307,-3.9313,-3.9488,-3.9516,-3.9604,-3.9771,-3.9808,-3.9856,-3.9815,-4.0197,-4.0202,-4.0206,-4.015,-4.0153,-4.0155,0,0,0,0,0,-3.8628,-3.8671,-3.9052,-3.8893,-3.8943,-3.9098,-3.919,-3.9215,-3.9282,-3.9444,-3.9473,-3.935,-3.9603,-3.964,-3.9794,-3.9837,-3.9791,-3.9804,-4.02,-4.0204,-4.0208,-4.0151,0,0,0,0,0,0,-3.864,-3.8696,-3.9065,-3.9084,-3.8865,-3.9088,-3.9126,-3.9208,-3.941,-3.9439,-3.9311,-3.9313,-3.9603,-3.9632,-3.9661,-3.9825,-3.9771,-3.9784,-3.9792,-4.0203,-4.0206,-4.0209,0,0,0,0,0,0,-3.8674,-3.8712,-3.9074,-3.9034,-3.905,-3.9077,-3.9111,-3.9255,-3.9411,-3.9266,-3.9274,-3.931,-3.956,-3.9627,-3.9649,-3.987,-3.9755,-3.9768,-3.9777,-3.9783,-4.0206,-4.0208,0,0,0,0,0,0,-3.8692,-3.8724,-3.903,-3.9042,-3.9055,-3.9278,-3.9207,-3.9461,-3.9376,-3.9255,-3.9371,-3.9369,-3.9554,-3.9579,-3.9641,-3.9852,-3.9866,-3.9756,-3.9765,-3.9771,-3.9775,0,0,0,0,0,0,0,-3.8706,-3.8463,-3.8951,-3.9048,-3.906,-3.9261,-3.9266,-3.9271,-3.9375,-3.9373,-3.9372,-3.937,-3.9682,-3.9696,-3.971,-3.9837,0,0,-3.9754,-3.9761,0,0,0,0,0,0,0,0,-3.8452,-3.846,-3.8951,-3.8955,-3.8959,-3.9262,-3.9266,-3.927,-3.9375,-3.9373,-3.9372,-3.9371,-3.9686,-3.9697,-3.9709,0,0,0,0,0,0,0,0,0,0,0,0,0,0,0,-3.8952,-3.8955,0,-3.9262,-3.9266,-3.9269,-3.9375,-3.9374,-3.9372,-3.9371,-3.9689,-3.9698,-3.9708,0,0,0,0,0,0,0,0,0,0,0,0,0,0,0,0,0,0,0,0,0,0,0,0,0,0,0,0,0,0,0,0,0,0,0,0,0,0,0,0,0,0,0,0,0,0,0,0,0,0,0,0,0,0,0,0,0,0,0,0,0,0,0,0,0,0,0,0,0]}],[{"header":{"parameterUnit":"kt","parameterCategory":2,"dx":1,"dy":1,"la1":30.253999710083008,"la2":30.299108505249023,"lo1":-89.0895004272461,"lo2":-89.04439544677734,"nx":28,"ny":28,"refTime":"2022-10-22T21:00:00:Z","depth":0,"parameterNumber":2,"parameterNumberName":"V-component_of_WINDS"},"data":[7.3646,7.3671,7.3658,7.368,7.3671,7.3683,7.3682,7.3681,7.3675,7.3688,7.3692,7.3679,7.3666,7.3667,7.367,7.3663,7.3664,7.3686,7.3674,7.3594,7.3581,7.3569,7.3562,7.3688,7.3688,7.3758,7.3759,7.3759,7.3596,7.3588,7.3595,7.3592,7.3598,7.3571,7.3565,7.3571,7.3582,7.3575,7.3578,7.3586,7.359,7.3568,7.3569,7.358,7.3564,7.3581,7.3578,7.3576,7.349,7.3483,7.3594,7.3594,7.3594,7.3594,7.3594,7.3594,7.35,7.3515,7.3504,7.3511,7.3505,7.3503,7.3514,7.3497,7.3502,7.3501,7.3481,7.3492,7.3479,7.347,7.3462,7.347,7.3447,7.3459,7.3461,7.3464,7.347,7.337,7.3469,7.3469,7.3469,7.3468,7.3468,0,7.3423,7.341,7.3414,7.3415,7.3419,7.3417,7.3412,7.3419,7.338,7.3386,7.3392,7.3393,7.3394,7.3396,7.3392,7.338,7.3345,7.3341,7.3348,7.3356,7.3367,7.336,7.322,7.3336,7.3335,7.3334,7.3333,7.3333,7.3323,7.3342,7.3321,7.3326,7.3318,7.3327,7.3328,7.3293,7.3295,7.3283,7.3297,7.33,7.3299,7.331,7.3284,7.3284,7.3265,7.3312,7.3264,7.3275,7.3263,7.3261,7.3263,7.332,7.3321,7.3323,7.3324,0,7.3268,7.324,7.3263,7.3238,7.3233,7.3254,7.3232,7.3245,7.3224,7.3238,7.3239,7.3205,7.321,7.3177,7.3175,7.3157,7.3191,7.3175,7.3197,7.319,7.3227,7.3223,7.3354,7.3369,7.3241,7.3242,7.3243,0,7.3169,7.3194,7.3151,7.3165,7.3193,7.3154,7.3183,7.3166,7.3153,7.3163,7.312,7.313,7.3085,7.3091,7.3063,7.3086,7.3085,7.3072,7.3063,7.3073,7.3075,7.3069,7.3061,7.3046,7.3045,7.3045,7.3044,0,7.3082,7.3088,7.3112,7.3108,7.308,7.3093,7.3082,7.3065,7.3065,7.306,7.3059,7.3056,7.3052,7.3051,7.3015,7.2984,7.3042,7.2991,7.3027,7.3028,7.3036,7.3036,7.3165,7.3043,7.3043,7.3043,7.3043,0,7.2995,7.2992,7.3031,7.3007,7.3009,7.3024,7.3017,7.3023,7.3007,7.2991,7.2986,7.295,7.2966,7.292,7.2942,7.2911,7.2911,7.29,7.2901,7.2896,7.2843,7.2917,7.3046,7.3057,7.2899,7.2898,7.2897,0,7.2904,7.2934,7.2899,7.2936,7.2944,7.2893,7.291,7.2896,7.2876,7.2879,7.2855,7.2858,7.2816,7.2811,7.2828,7.2801,7.2841,7.2796,7.2798,7.2798,7.2801,7.2921,7.2947,7.3023,7.2881,7.2883,7.2884,0,7.2827,7.2791,7.28,7.2792,7.2767,7.2773,7.2792,7.2786,7.2791,7.2779,7.2793,7.2797,7.2764,7.2756,7.2724,7.2743,7.2813,7.2704,7.2703,7.2723,7.287,7.2895,7.2908,7.2788,7.279,7.2792,7.2872,0,7.2699,7.2709,7.2732,7.2714,7.2713,7.2733,7.2694,7.2698,7.2668,7.2643,7.2663,7.2638,7.2629,7.2634,7.2603,7.2657,7.2641,7.2605,7.2551,7.2631,7.2656,7.2667,7.2518,7.2516,7.2514,7.2513,0,0,7.2616,7.2628,7.2585,7.26,7.2596,7.2539,7.2563,7.2552,7.253,7.2528,7.2499,7.2499,7.2479,7.2505,7.2527,7.2524,7.2529,7.25,7.2594,7.2603,7.2612,7.2639,7.2651,7.251,7.251,7.2509,7.2509,0,7.2559,7.2543,7.2568,7.2555,7.2533,7.2505,7.2512,7.2478,7.2462,7.248,7.2429,7.2435,7.2433,7.2419,7.2411,7.2499,7.2457,7.25,7.256,7.258,7.2592,7.2601,7.2631,7.2643,7.2505,7.2505,7.2506,0,7.2474,7.2451,7.2458,7.2445,7.2428,7.2437,7.2373,7.2384,7.2389,7.232,7.2336,7.2316,7.2292,7.2323,7.2334,7.2307,7.2394,7.2358,7.2367,7.2365,7.2382,7.2396,7.2408,7.2248,7.2247,7.2246,0,0,7.243,7.2437,7.2397,7.2429,7.2423,7.2379,7.2378,7.2346,7.2327,7.2319,7.229,7.2272,7.2271,7.2271,7.2267,7.2306,7.2296,7.2328,7.234,7.2351,7.2355,7.2375,7.2388,7.2244,7.2244,7.2244,0,0,7.2407,7.2362,7.2334,7.2366,7.235,7.231,7.233,7.2295,7.2287,7.2279,7.2223,7.2215,7.2242,7.2223,7.2192,7.2246,7.2195,7.2201,7.2257,7.2271,7.2283,7.2285,7.2118,0,0,0,0,0,7.2326,7.2368,7.2343,7.2342,7.2322,7.2325,7.2321,7.2277,7.2242,7.226,7.2231,7.2186,7.2195,7.2167,7.2166,7.2198,7.2209,7.2215,7.2221,7.2302,7.2317,7.2331,0,0,0,0,0,0,7.2325,7.2324,7.2342,7.2304,7.2299,7.2323,7.2254,7.2243,7.2239,7.2231,7.2193,7.2185,7.2145,7.2164,7.2164,7.2196,7.2118,7.2211,7.2217,7.2221,7.2307,7.232,7.2331,0,0,0,0,0,7.2324,7.2323,7.2302,7.2303,7.2299,7.225,7.2252,7.2242,7.2238,7.2191,7.2181,7.2205,7.2148,7.2144,7.2164,7.2197,7.2118,7.2118,7.2215,7.2219,7.2223,7.2313,0,0,0,0,0,0,7.2323,7.2313,7.23,7.2297,7.2283,7.2248,7.2241,7.2242,7.2197,7.2188,7.2199,7.2193,7.215,7.2147,7.2144,7.22,7.2118,7.2118,7.2118,7.2218,7.2221,7.2224,0,0,0,0,0,0,7.2314,7.2311,7.2298,7.2275,7.2269,7.2246,7.224,7.2249,7.2198,7.2208,7.2201,7.2197,7.2152,7.2149,7.2146,7.2162,7.2118,7.2118,7.2118,7.2118,7.2221,7.2223,0,0,0,0,0,0,7.2312,7.231,7.2275,7.2271,7.2265,7.2227,7.2253,7.2234,7.218,7.2211,7.2174,7.2171,7.2156,7.2152,7.2148,7.2165,7.2163,7.2118,7.2118,7.2118,7.2118,0,0,0,0,0,0,0,7.231,7.2335,7.2318,7.2267,7.2262,7.2269,7.2268,7.2267,7.2179,7.2177,7.2174,7.2172,7.2117,7.2118,7.2118,7.2168,0,0,7.2118,7.2118,0,0,0,0,0,0,0,0,7.2334,7.2335,7.2318,7.2317,7.2317,7.2269,7.2268,7.2267,7.2179,7.2177,7.2175,7.2173,7.2117,7.2118,7.2118,0,0,0,0,0,0,0,0,0,0,0,0,0,0,0,7.2318,7.2317,0,7.2268,7.2268,7.2267,7.2179,7.2177,7.2175,7.2174,7.2118,7.2118,7.2118,0,0,0,0,0,0,0,0,0,0,0,0,0,0,0,0,0,0,0,0,0,0,0,0,0,0,0,0,0,0,0,0,0,0,0,0,0,0,0,0,0,0,0,0,0,0,0,0,0,0,0,0,0,0,0,0,0,0,0,0,0,0,0,0,0,0,0,0,0]}]]]